欧洲卫星公司-2星 (SES-2)

导读 | 星芒AI

SES-2 是一颗由 SES 公司运营的通信卫星,于 2005 年 11 月 21 日通过阿里亚娜 5 型火箭发射。它位于地球同步轨道,定点在东经 95 度,主要用于提供广播、电视和宽带通信服务,覆盖欧洲、非洲和亚洲部分地区。该卫星搭载 C 波段和 Ku 波段转发器,支持多种媒体传输,广泛服务于新闻采集、卫星电视和企业通信等领域。SES-2 的部署增强了 SES 在全球卫星通信市场中的服务能力与覆盖范围。

基本信息
目录编号:
37809
目录名称:
SES 2
国际标识:
2011-049A
轨道中心:
EARTH
卫星名称:
欧洲卫星公司-2星
卫星全名:
欧洲卫星公司-2星 (SES-2)
卫星状态:
在轨 (已飞行5277 天)
发射日期:
2011-09-21 UTC
国别 :
(SES)
星等 :
--
轨道信息
数据来源 国际轨道数据 AOE轨道数据
星历时间 2026-03-02T21:42:03+0800
11小时前
查看轨道信息
2026-03-02T11:00:00+0800
21小时前
查看轨道信息
半长轴 42164.476km 42164.588km
偏心率 0.0002964 0.0002958
轨道倾角 0.032° 0.031°
近地点辐角 261.097° 257.828°
升交点赤经 76.674° 78.313°
平近点角 301.067° 141.740°
近地点 35773.841km 35773.978km
远地点 35798.837km 35798.924km
周期 1436.084分钟 1436.090分钟
每日圈数 1.002727 1.002723
详细信息
卫星平台:
Star-2.4
平衡模式:
三轴稳定
覆盖范围:
大西洋
运营商:
欧洲卫星公司
运营商所在国:
卢森堡
制造商(研发单位):
轨道ATK公司
制造商所在国:
美国
使用方式:
暂无
卫星简介
欧洲卫星公司:成立于1985年,总部设在卢森堡。该公司通过运营ASTRA、AMERICOM及 NEW SKIES卫星系统为客户提供电视、广播和多媒体直接到户的信息传送服务,是世界第二大卫星运营商。该卫星仍在工作。
2D轨道图
3D轨道图
轨道高度分析图
轨道倾角分析图
轨道综合分析图
查看轨道综合分析图